Time,TemperatureF,DewpointF,PressureIn,WindDirection,WindDirectionDegrees,WindSpeedMPH,WindSpeedGustMPH,Humidity,HourlyPrecipIn,Conditions,Clouds,dailyrainin,SoftwareType,DateUTC
2013-04-16 00:00:00,43.2,34.7,30.38,West,270,1.0,4.0,72,0.00,,,0.00,meteohub,2013-04-16 04:00:00,
2013-04-16 00:02:00,43.2,34.7,30.38,West,270,2.0,3.0,72,0.00,,,0.00,meteohub,2013-04-16 04:02:00,
2013-04-16 00:03:00,43.2,34.7,30.38,West,270,2.0,3.0,72,0.00,,,0.00,meteohub,2013-04-16 04:03:00,
2013-04-16 00:07:00,43.0,34.5,30.38,NW,315,2.0,3.0,72,0.00,,,0.00,meteohub,2013-04-16 04:07:00,
2013-04-16 00:12:00,42.8,34.3,30.38,WNW,293,1.0,3.0,72,0.00,,,0.00,meteohub,2013-04-16 04:12:00,
2013-04-16 00:18:00,42.8,34.7,30.38,West,270,2.0,2.0,73,0.00,,,0.00,meteohub,2013-04-16 04:18:00,
2013-04-16 00:23:00,42.8,34.7,30.38,West,270,2.0,4.0,73,0.00,,,0.00,meteohub,2013-04-16 04:23:00,
2013-04-16 00:28:00,42.8,34.7,30.38,NW,315,2.0,4.0,73,0.00,,,0.00,meteohub,2013-04-16 04:28:00,
2013-04-16 00:33:00,42.6,35.2,30.38,West,270,2.0,4.0,75,0.00,,,0.00,meteohub,2013-04-16 04:33:00,
2013-04-16 00:38:00,42.6,35.2,30.38,NW,315,2.0,4.0,75,0.00,,,0.00,meteohub,2013-04-16 04:38:00,
2013-04-16 00:43:00,42.6,35.2,30.38,West,270,2.0,4.0,75,0.00,,,0.00,meteohub,2013-04-16 04:43:00,
2013-04-16 00:48:00,42.6,35.6,30.39,NW,315,2.0,4.0,76,0.00,,,0.00,meteohub,2013-04-16 04:48:00,
2013-04-16 00:53:00,42.6,35.6,30.38,NW,315,2.0,3.0,76,0.00,,,0.00,meteohub,2013-04-16 04:53:00,
2013-04-16 00:59:00,42.4,35.8,30.38,WNW,293,2.0,3.0,77,0.00,,,0.00,meteohub,2013-04-16 04:59:00,
2013-04-16 01:04:00,42.3,35.6,30.38,West,270,3.0,3.0,77,0.00,,,0.00,meteohub,2013-04-16 05:04:00,
2013-04-16 01:09:00,42.3,36.0,30.38,West,270,2.0,3.0,78,0.00,,,0.00,meteohub,2013-04-16 05:09:00,
2013-04-16 01:14:00,42.1,35.8,30.39,NW,315,2.0,3.0,78,0.00,,,0.00,meteohub,2013-04-16 05:14:00,
2013-04-16 01:19:00,42.1,35.8,30.39,West,270,0.0,3.0,78,0.00,,,0.00,meteohub,2013-04-16 05:19:00,
2013-04-16 01:24:00,41.9,35.8,30.39,West,270,2.0,3.0,79,0.00,,,0.00,meteohub,2013-04-16 05:24:00,
2013-04-16 01:29:00,41.9,35.8,30.39,NW,315,1.0,3.0,79,0.00,,,0.00,meteohub,2013-04-16 05:29:00,
2013-04-16 01:34:00,41.7,36.0,30.39,West,270,1.0,3.0,80,0.00,,,0.00,meteohub,2013-04-16 05:34:00,
2013-04-16 01:40:00,41.7,36.0,30.39,West,270,2.0,2.0,80,0.00,,,0.00,meteohub,2013-04-16 05:40:00,
2013-04-16 01:45:00,41.7,36.0,30.38,West,270,0.0,2.0,80,0.00,,,0.00,meteohub,2013-04-16 05:45:00,
2013-04-16 01:50:00,41.5,36.1,30.39,West,270,0.0,2.0,81,0.00,,,0.00,meteohub,2013-04-16 05:50:00,
2013-04-16 01:55:00,41.4,36.0,30.38,West,270,2.0,2.0,81,0.00,,,0.00,meteohub,2013-04-16 05:55:00,
2013-04-16 02:00:00,41.4,36.3,30.38,West,270,1.0,3.0,82,0.00,,,0.00,meteohub,2013-04-16 06:00:00,
2013-04-16 02:05:00,41.4,36.3,30.38,West,270,1.0,3.0,82,0.00,,,0.00,meteohub,2013-04-16 06:05:00,
2013-04-16 02:10:00,41.2,36.1,30.38,West,270,2.0,3.0,82,0.00,,,0.00,meteohub,2013-04-16 06:10:00,
2013-04-16 02:15:00,41.2,36.5,30.38,West,270,0.0,2.0,83,0.00,,,0.00,meteohub,2013-04-16 06:15:00,
2013-04-16 02:20:00,41.2,36.5,30.37,West,270,1.0,2.0,83,0.00,,,0.00,meteohub,2013-04-16 06:20:00,
2013-04-16 02:25:00,41.0,36.5,30.37,West,270,2.0,2.0,84,0.00,,,0.00,meteohub,2013-04-16 06:25:00,
2013-04-16 02:31:00,41.0,36.5,30.38,West,270,2.0,2.0,84,0.00,,,0.00,meteohub,2013-04-16 06:31:00,
2013-04-16 02:36:00,41.0,36.5,30.37,West,270,0.0,2.0,84,0.00,,,0.00,meteohub,2013-04-16 06:36:00,
2013-04-16 02:41:00,41.0,36.5,30.38,NW,315,0.0,2.0,84,0.00,,,0.00,meteohub,2013-04-16 06:41:00,
2013-04-16 02:46:00,40.8,36.7,30.38,West,270,0.0,2.0,85,0.00,,,0.00,meteohub,2013-04-16 06:46:00,
2013-04-16 02:51:00,40.6,36.9,30.37,West,270,0.0,0.0,86,0.00,,,0.00,meteohub,2013-04-16 06:51:00,
2013-04-16 02:56:00,40.6,36.9,30.38,West,270,0.0,0.0,86,0.00,,,0.00,meteohub,2013-04-16 06:56:00,
2013-04-16 03:01:00,40.5,36.7,30.38,West,270,0.0,0.0,86,0.00,,,0.00,meteohub,2013-04-16 07:01:00,
2013-04-16 03:06:00,40.5,36.9,30.38,West,270,0.0,0.0,87,0.00,,,0.00,meteohub,2013-04-16 07:06:00,
2013-04-16 03:11:00,40.3,36.7,30.38,West,270,0.0,0.0,87,0.00,,,0.00,meteohub,2013-04-16 07:11:00,
2013-04-16 03:17:00,40.3,36.7,30.37,West,270,1.0,0.0,87,0.00,,,0.00,meteohub,2013-04-16 07:17:00,
2013-04-16 03:22:00,40.3,37.0,30.38,West,270,1.0,2.0,88,0.00,,,0.00,meteohub,2013-04-16 07:22:00,
2013-04-16 03:27:00,40.3,37.0,30.38,West,270,1.0,2.0,88,0.00,,,0.00,meteohub,2013-04-16 07:27:00,
2013-04-16 03:32:00,40.3,37.0,30.38,West,270,1.0,2.0,88,0.00,,,0.00,meteohub,2013-04-16 07:32:00,
2013-04-16 03:37:00,40.1,37.0,30.38,West,270,0.0,2.0,89,0.00,,,0.00,meteohub,2013-04-16 07:37:00,
2013-04-16 03:42:00,40.1,37.0,30.38,West,270,0.0,2.0,89,0.00,,,0.00,meteohub,2013-04-16 07:42:00,
2013-04-16 03:47:00,40.1,37.0,30.38,West,270,1.0,2.0,89,0.00,,,0.00,meteohub,2013-04-16 07:47:00,
2013-04-16 03:52:00,39.9,36.9,30.38,West,270,1.0,2.0,89,0.00,,,0.00,meteohub,2013-04-16 07:52:00,
2013-04-16 03:57:00,39.9,37.2,30.39,West,270,2.0,2.0,90,0.00,,,0.00,meteohub,2013-04-16 07:57:00,
2013-04-16 04:02:00,39.9,37.2,30.38,West,270,1.0,2.0,90,0.00,,,0.00,meteohub,2013-04-16 08:02:00,
2013-04-16 04:07:00,39.7,37.0,30.38,West,270,2.0,2.0,90,0.00,,,0.00,meteohub,2013-04-16 08:07:00,
2013-04-16 04:12:00,39.7,37.0,30.38,West,270,1.0,2.0,90,0.00,,,0.00,meteohub,2013-04-16 08:12:00,
2013-04-16 04:17:00,39.7,37.4,30.38,West,270,2.0,2.0,91,0.00,,,0.00,meteohub,2013-04-16 08:17:00,
2013-04-16 04:22:00,39.6,37.2,30.38,West,270,1.0,2.0,91,0.00,,,0.00,meteohub,2013-04-16 08:22:00,
2013-04-16 04:27:00,39.4,37.0,30.38,NW,315,0.0,2.0,91,0.00,,,0.00,meteohub,2013-04-16 08:27:00,
2013-04-16 04:32:00,39.6,37.2,30.38,West,270,0.0,2.0,91,0.00,,,0.00,meteohub,2013-04-16 08:32:00,
2013-04-16 04:37:00,39.6,37.2,30.38,West,270,1.0,2.0,91,0.00,,,0.00,meteohub,2013-04-16 08:37:00,
2013-04-16 04:42:00,39.4,37.2,30.38,NW,315,2.0,2.0,92,0.00,,,0.00,meteohub,2013-04-16 08:42:00,
2013-04-16 04:47:00,39.4,37.2,30.37,NW,315,2.0,2.0,92,0.00,,,0.00,meteohub,2013-04-16 08:47:00,
2013-04-16 04:52:00,39.4,37.2,30.37,West,270,2.0,2.0,92,0.00,,,0.00,meteohub,2013-04-16 08:52:00,
2013-04-16 04:57:00,39.4,37.2,30.37,NW,315,2.0,2.0,92,0.00,,,0.00,meteohub,2013-04-16 08:57:00,
2013-04-16 05:02:00,39.6,37.8,30.37,West,270,1.0,2.0,93,0.00,,,0.00,meteohub,2013-04-16 09:02:00,
2013-04-16 05:07:00,39.6,37.8,30.37,West,270,2.0,2.0,93,0.00,,,0.00,meteohub,2013-04-16 09:07:00,
2013-04-16 05:12:00,39.6,37.8,30.37,NW,315,1.0,2.0,93,0.00,,,0.00,meteohub,2013-04-16 09:12:00,
2013-04-16 05:17:00,39.6,37.8,30.37,West,270,0.0,2.0,93,0.00,,,0.00,meteohub,2013-04-16 09:17:00,
2013-04-16 05:22:00,39.6,37.8,30.37,West,270,2.0,2.0,93,0.00,,,0.00,meteohub,2013-04-16 09:22:00,
2013-04-16 05:27:00,39.6,37.8,30.37,West,270,2.0,3.0,93,0.00,,,0.00,meteohub,2013-04-16 09:27:00,
2013-04-16 05:32:00,39.4,37.6,30.38,NW,315,2.0,3.0,93,0.00,,,0.00,meteohub,2013-04-16 09:32:00,
2013-04-16 05:38:00,39.4,37.8,30.38,West,270,2.0,3.0,94,0.00,,,0.00,meteohub,2013-04-16 09:38:00,
2013-04-16 05:43:00,39.4,37.8,30.38,West,270,2.0,3.0,94,0.00,,,0.00,meteohub,2013-04-16 09:43:00,
2013-04-16 05:48:00,39.2,37.6,30.37,West,270,3.0,3.0,94,0.00,,,0.00,meteohub,2013-04-16 09:48:00,
2013-04-16 05:53:00,39.2,37.6,30.37,West,270,2.0,3.0,94,0.00,,,0.00,meteohub,2013-04-16 09:53:00,
2013-04-16 05:58:00,39.2,37.6,30.37,NW,315,2.0,3.0,94,0.00,,,0.00,meteohub,2013-04-16 09:58:00,
2013-04-16 06:03:00,39.2,37.6,30.37,NW,315,3.0,3.0,94,0.00,,,0.00,meteohub,2013-04-16 10:03:00,
2013-04-16 06:08:00,39.2,37.6,30.38,West,270,0.0,3.0,94,0.00,,,0.00,meteohub,2013-04-16 10:08:00,
2013-04-16 06:13:00,39.0,37.4,30.37,West,270,2.0,3.0,94,0.00,,,0.00,meteohub,2013-04-16 10:13:00,
2013-04-16 06:18:00,39.0,37.4,30.38,West,270,0.0,3.0,94,0.00,,,0.00,meteohub,2013-04-16 10:18:00,
2013-04-16 06:23:00,39.2,37.4,30.38,NW,315,2.0,2.0,93,0.00,,,0.00,meteohub,2013-04-16 10:23:00,
2013-04-16 06:28:00,39.2,37.4,30.37,NW,315,2.0,2.0,93,0.00,,,0.00,meteohub,2013-04-16 10:28:00,
2013-04-16 06:33:00,39.4,37.6,30.38,NW,315,2.0,2.0,93,0.00,,,0.00,meteohub,2013-04-16 10:33:00,
2013-04-16 06:39:00,39.6,37.8,30.38,NW,315,2.0,3.0,93,0.00,,,0.00,meteohub,2013-04-16 10:39:00,
2013-04-16 06:44:00,39.7,37.9,30.37,NW,315,2.0,3.0,93,0.00,,,0.00,meteohub,2013-04-16 10:44:00,
2013-04-16 06:49:00,40.1,38.3,30.38,West,270,3.0,3.0,93,0.00,,,0.00,meteohub,2013-04-16 10:49:00,
2013-04-16 06:54:00,40.5,38.7,30.38,West,270,2.0,3.0,93,0.00,,,0.00,meteohub,2013-04-16 10:54:00,
2013-04-16 06:59:00,40.8,38.7,30.38,NW,315,3.0,4.0,92,0.00,,,0.00,meteohub,2013-04-16 10:59:00,
2013-04-16 07:04:00,41.2,38.8,30.37,NW,315,2.0,4.0,91,0.00,,,0.00,meteohub,2013-04-16 11:04:00,
2013-04-16 07:09:00,41.4,38.7,30.37,NW,315,4.0,4.0,90,0.00,,,0.00,meteohub,2013-04-16 11:09:00,
2013-04-16 07:14:00,41.9,38.8,30.38,South,180,2.0,4.0,89,0.00,,,0.00,meteohub,2013-04-16 11:14:00,
2013-04-16 07:19:00,42.1,38.5,30.38,West,270,4.0,6.0,87,0.00,,,0.00,meteohub,2013-04-16 11:19:00,
2013-04-16 07:25:00,42.6,38.5,30.38,West,270,2.0,6.0,85,0.00,,,0.00,meteohub,2013-04-16 11:25:00,
2013-04-16 07:30:00,43.0,38.1,30.37,West,270,4.0,6.0,83,0.00,,,0.00,meteohub,2013-04-16 11:30:00,
2013-04-16 07:35:00,43.3,38.3,30.37,South,180,4.0,5.0,82,0.00,,,0.00,meteohub,2013-04-16 11:35:00,
2013-04-16 07:40:00,44.4,38.7,30.37,NW,315,4.0,5.0,80,0.00,,,0.00,meteohub,2013-04-16 11:40:00,
2013-04-16 07:45:00,46.0,39.6,30.37,West,270,3.0,5.0,78,0.00,,,0.00,meteohub,2013-04-16 11:45:00,
2013-04-16 07:50:00,47.3,39.0,30.37,West,270,4.0,6.0,73,0.00,,,0.00,meteohub,2013-04-16 11:50:00,
2013-04-16 07:55:00,47.7,38.3,30.37,NW,315,4.0,9.0,70,0.00,,,0.00,meteohub,2013-04-16 11:55:00,
2013-04-16 08:00:00,48.4,37.9,30.37,NW,315,3.0,9.0,67,0.00,,,0.00,meteohub,2013-04-16 12:00:00,
2013-04-16 08:05:00,48.6,37.4,30.37,NW,315,4.0,9.0,65,0.00,,,0.00,meteohub,2013-04-16 12:05:00,
2013-04-16 08:10:00,48.9,37.8,30.37,NW,315,3.0,5.0,65,0.00,,,0.00,meteohub,2013-04-16 12:10:00,
2013-04-16 08:15:00,50.2,37.6,30.37,NW,315,3.0,5.0,62,0.00,,,0.00,meteohub,2013-04-16 12:15:00,
2013-04-16 08:20:00,51.3,38.3,30.37,NW,315,5.0,5.0,61,0.00,,,0.00,meteohub,2013-04-16 12:20:00,
2013-04-16 08:25:00,51.1,37.8,30.37,NW,315,5.0,7.0,60,0.00,,,0.00,meteohub,2013-04-16 12:25:00,
2013-04-16 08:30:00,51.1,36.9,30.37,NW,315,2.0,7.0,58,0.00,,,0.00,meteohub,2013-04-16 12:30:00,
2013-04-16 08:36:00,51.6,37.8,30.37,NW,315,4.0,7.0,59,0.00,,,0.00,meteohub,2013-04-16 12:36:00,
2013-04-16 08:41:00,51.8,35.6,30.36,NW,315,4.0,7.0,54,0.00,,,0.00,meteohub,2013-04-16 12:41:00,
2013-04-16 08:46:00,53.1,36.3,30.36,West,270,4.0,7.0,53,0.00,,,0.00,meteohub,2013-04-16 12:46:00,
2013-04-16 08:51:00,54.5,36.3,30.36,WNW,293,5.0,7.0,50,0.00,,,0.00,meteohub,2013-04-16 12:51:00,
2013-04-16 08:57:00,54.0,35.2,30.36,NW,315,4.0,7.0,49,0.00,,,0.00,meteohub,2013-04-16 12:57:00,
2013-04-16 09:02:00,54.1,36.0,30.35,NW,315,4.0,6.0,50,0.00,,,0.00,meteohub,2013-04-16 13:02:00,
2013-04-16 09:07:00,54.3,36.1,30.35,WSW,248,8.0,11.0,50,0.00,,,0.00,meteohub,2013-04-16 13:07:00,
2013-04-16 09:12:00,55.2,36.9,30.35,West,270,3.0,11.0,50,0.00,,,0.00,meteohub,2013-04-16 13:12:00,
2013-04-16 09:17:00,54.9,36.5,30.35,WNW,293,7.0,11.0,50,0.00,,,0.00,meteohub,2013-04-16 13:17:00,
2013-04-16 09:22:00,54.9,36.5,30.35,West,270,5.0,8.0,50,0.00,,,0.00,meteohub,2013-04-16 13:22:00,
2013-04-16 09:27:00,55.6,38.3,30.35,South,180,2.0,8.0,52,0.00,,,0.00,meteohub,2013-04-16 13:27:00,
2013-04-16 09:32:00,55.9,38.1,30.35,West,270,4.0,8.0,51,0.00,,,0.00,meteohub,2013-04-16 13:32:00,
2013-04-16 09:37:00,57.2,38.7,30.35,West,270,4.0,8.0,50,0.00,,,0.00,meteohub,2013-04-16 13:37:00,
2013-04-16 09:42:00,56.7,37.8,30.35,NW,315,8.0,8.0,49,0.00,,,0.00,meteohub,2013-04-16 13:42:00,
2013-04-16 09:47:00,56.7,37.8,30.35,West,270,8.0,8.0,49,0.00,,,0.00,meteohub,2013-04-16 13:47:00,
2013-04-16 09:52:00,57.7,38.1,30.34,West,270,3.0,8.0,48,0.00,,,0.00,meteohub,2013-04-16 13:52:00,
2013-04-16 09:57:00,58.6,38.5,30.34,NW,315,2.0,8.0,47,0.00,,,0.00,meteohub,2013-04-16 13:57:00,
2013-04-16 10:02:00,59.4,37.4,30.34,West,270,6.0,8.0,44,0.00,,,0.00,meteohub,2013-04-16 14:02:00,
2013-04-16 10:07:00,59.0,37.0,30.35,NW,315,3.0,6.0,44,0.00,,,0.00,meteohub,2013-04-16 14:07:00,
2013-04-16 10:12:00,59.4,37.4,30.35,West,270,4.0,6.0,44,0.00,,,0.00,meteohub,2013-04-16 14:12:00,
2013-04-16 10:17:00,59.2,37.2,30.34,NW,315,4.0,6.0,44,0.00,,,0.00,meteohub,2013-04-16 14:17:00,
2013-04-16 10:22:00,59.7,37.2,30.34,West,270,4.0,8.0,43,0.00,,,0.00,meteohub,2013-04-16 14:22:00,
2013-04-16 10:27:00,59.9,36.7,30.34,NW,315,8.0,8.0,42,0.00,,,0.00,meteohub,2013-04-16 14:27:00,
2013-04-16 10:32:00,59.9,36.7,30.33,West,270,4.0,8.0,42,0.00,,,0.00,meteohub,2013-04-16 14:32:00,
2013-04-16 10:37:00,60.3,37.0,30.33,North,0,6.0,8.0,42,0.00,,,0.00,meteohub,2013-04-16 14:37:00,
2013-04-16 10:42:00,61.0,37.0,30.33,West,270,5.0,11.0,41,0.00,,,0.00,meteohub,2013-04-16 14:42:00,
2013-04-16 10:47:00,61.9,37.9,30.33,WNW,293,3.0,11.0,41,0.00,,,0.00,meteohub,2013-04-16 14:47:00,
2013-04-16 10:52:00,63.0,37.0,30.32,NW,315,4.0,11.0,38,0.00,,,0.00,meteohub,2013-04-16 14:52:00,
2013-04-16 10:57:00,62.6,36.7,30.32,NE,45,3.0,10.0,38,0.00,,,0.00,meteohub,2013-04-16 14:57:00,
2013-04-16 11:02:00,63.1,37.0,30.32,NW,315,4.0,10.0,38,0.00,,,0.00,meteohub,2013-04-16 15:02:00,
2013-04-16 11:07:00,63.7,37.6,30.33,West,270,6.0,10.0,38,0.00,,,0.00,meteohub,2013-04-16 15:07:00,
2013-04-16 11:12:00,62.8,36.9,30.32,NW,315,6.0,10.0,38,0.00,,,0.00,meteohub,2013-04-16 15:12:00,
2013-04-16 11:18:00,61.5,37.6,30.31,NW,315,3.0,8.0,41,0.00,,,0.00,meteohub,2013-04-16 15:18:00,
2013-04-16 11:23:00,62.1,38.1,30.31,NW,315,8.0,8.0,41,0.00,,,0.00,meteohub,2013-04-16 15:23:00,
2013-04-16 11:28:00,61.9,38.5,30.30,West,270,7.0,8.0,42,0.00,,,0.00,meteohub,2013-04-16 15:28:00,
2013-04-16 11:33:00,63.1,39.0,30.30,North,0,5.0,10.0,41,0.00,,,0.00,meteohub,2013-04-16 15:33:00,
2013-04-16 11:38:00,63.9,39.0,30.30,West,270,6.0,10.0,40,0.00,,,0.00,meteohub,2013-04-16 15:38:00,
2013-04-16 11:43:00,63.9,39.0,30.30,NW,315,6.0,10.0,40,0.00,,,0.00,meteohub,2013-04-16 15:43:00,
2013-04-16 11:48:00,63.9,39.0,30.30,West,270,4.0,7.0,40,0.00,,,0.00,meteohub,2013-04-16 15:48:00,
2013-04-16 11:53:00,62.6,38.5,30.29,WNW,293,5.0,7.0,41,0.00,,,0.00,meteohub,2013-04-16 15:53:00,
2013-04-16 11:59:00,63.0,38.8,30.29,NW,315,8.0,9.0,41,0.00,,,0.00,meteohub,2013-04-16 15:59:00,
2013-04-16 12:04:00,63.5,39.4,30.28,West,270,4.0,9.0,41,0.00,,,0.00,meteohub,2013-04-16 16:04:00,
2013-04-16 12:09:00,64.0,39.9,30.27,NW,315,4.0,11.0,41,0.00,,,0.00,meteohub,2013-04-16 16:09:00,
2013-04-16 12:14:00,64.6,41.0,30.27,South,180,4.0,11.0,42,0.00,,,0.00,meteohub,2013-04-16 16:14:00,
2013-04-16 12:19:00,64.4,40.8,30.27,NW,315,4.0,11.0,42,0.00,,,0.00,meteohub,2013-04-16 16:19:00,
2013-04-16 12:25:00,65.1,42.1,30.27,West,270,4.0,14.0,43,0.00,,,0.00,meteohub,2013-04-16 16:25:00,
2013-04-16 12:30:00,66.4,41.9,30.27,NW,315,7.0,14.0,41,0.00,,,0.00,meteohub,2013-04-16 16:30:00,
2013-04-16 12:35:00,66.2,41.7,30.27,NW,315,3.0,11.0,41,0.00,,,0.00,meteohub,2013-04-16 16:35:00,
2013-04-16 12:40:00,66.6,42.1,30.26,NW,315,6.0,8.0,41,0.00,,,0.00,meteohub,2013-04-16 16:40:00,
2013-04-16 12:46:00,65.7,42.6,30.25,West,270,5.0,11.0,43,0.00,,,0.00,meteohub,2013-04-16 16:46:00,
2013-04-16 12:51:00,66.2,42.4,30.25,NW,315,7.0,11.0,42,0.00,,,0.00,meteohub,2013-04-16 16:51:00,
2013-04-16 12:56:00,65.8,42.8,30.24,WNW,293,7.0,11.0,43,0.00,,,0.00,meteohub,2013-04-16 16:56:00,
2013-04-16 13:01:00,65.7,42.6,30.24,South,180,6.0,11.0,43,0.00,,,0.00,meteohub,2013-04-16 17:01:00,
2013-04-16 13:06:00,66.0,42.8,30.24,South,180,5.0,11.0,43,0.00,,,0.00,meteohub,2013-04-16 17:06:00,
2013-04-16 13:11:00,64.8,42.3,30.23,NW,315,10.0,11.0,44,0.00,,,0.00,meteohub,2013-04-16 17:11:00,
2013-04-16 13:16:00,64.8,42.3,30.23,North,0,4.0,11.0,44,0.00,,,0.00,meteohub,2013-04-16 17:16:00,
2013-04-16 13:22:00,64.4,42.6,30.23,NW,315,4.0,11.0,45,0.00,,,0.00,meteohub,2013-04-16 17:22:00,
2013-04-16 13:27:00,64.9,42.4,30.23,NW,315,8.0,10.0,44,0.00,,,0.00,meteohub,2013-04-16 17:27:00,
2013-04-16 13:32:00,65.7,43.7,30.24,NW,315,10.0,11.0,45,0.00,,,0.00,meteohub,2013-04-16 17:32:00,
2013-04-16 13:37:00,65.5,43.5,30.23,NW,315,8.0,11.0,45,0.00,,,0.00,meteohub,2013-04-16 17:37:00,
2013-04-16 13:42:00,65.5,43.0,30.23,NW,315,8.0,11.0,44,0.00,,,0.00,meteohub,2013-04-16 17:42:00,
2013-04-16 13:47:00,65.3,42.8,30.23,NE,45,8.0,11.0,44,0.00,,,0.00,meteohub,2013-04-16 17:47:00,
2013-04-16 13:52:00,65.3,42.8,30.23,NW,315,5.0,8.0,44,0.00,,,0.00,meteohub,2013-04-16 17:52:00,
2013-04-16 13:58:00,64.6,42.8,30.23,NW,315,5.0,8.0,45,0.00,,,0.00,meteohub,2013-04-16 17:58:00,
2013-04-16 14:03:00,64.0,42.8,30.23,NW,315,10.0,10.0,46,0.00,,,0.00,meteohub,2013-04-16 18:03:00,
2013-04-16 14:08:00,63.9,42.6,30.23,West,270,5.0,14.0,46,0.00,,,0.00,meteohub,2013-04-16 18:08:00,
2013-04-16 14:13:00,64.2,43.0,30.22,NW,315,5.0,14.0,46,0.00,,,0.00,meteohub,2013-04-16 18:13:00,
2013-04-16 14:18:00,64.6,42.8,30.22,NW,315,8.0,14.0,45,0.00,,,0.00,meteohub,2013-04-16 18:18:00,
2013-04-16 14:23:00,64.8,43.0,30.22,North,0,6.0,14.0,45,0.00,,,0.00,meteohub,2013-04-16 18:23:00,
2013-04-16 14:28:00,64.8,43.0,30.22,NE,45,6.0,8.0,45,0.00,,,0.00,meteohub,2013-04-16 18:28:00,
2013-04-16 14:33:00,64.6,43.3,30.21,South,180,7.0,9.0,46,0.00,,,0.00,meteohub,2013-04-16 18:33:00,
2013-04-16 14:38:00,64.6,43.3,30.21,NW,315,4.0,9.0,46,0.00,,,0.00,meteohub,2013-04-16 18:38:00,
2013-04-16 14:43:00,64.0,42.8,30.21,NW,315,4.0,10.0,46,0.00,,,0.00,meteohub,2013-04-16 18:43:00,
2013-04-16 14:49:00,63.9,43.2,30.20,West,270,4.0,11.0,47,0.00,,,0.00,meteohub,2013-04-16 18:49:00,
2013-04-16 14:54:00,63.7,43.7,30.20,SSE,158,6.0,11.0,48,0.00,,,0.00,meteohub,2013-04-16 18:54:00,
2013-04-16 14:59:00,64.2,43.5,30.19,West,270,3.0,11.0,47,0.00,,,0.00,meteohub,2013-04-16 18:59:00,
2013-04-16 15:04:00,64.4,42.6,30.19,NW,315,4.0,11.0,45,0.00,,,0.00,meteohub,2013-04-16 19:04:00,
2013-04-16 15:09:00,63.9,42.6,30.19,WNW,293,4.0,11.0,46,0.00,,,0.00,meteohub,2013-04-16 19:09:00,
2013-04-16 15:14:00,63.5,43.5,30.19,West,270,4.0,10.0,48,0.00,,,0.00,meteohub,2013-04-16 19:14:00,
2013-04-16 15:19:00,63.5,43.0,30.19,North,0,7.0,10.0,47,0.00,,,0.00,meteohub,2013-04-16 19:19:00,
2013-04-16 15:24:00,63.1,43.2,30.18,North,0,7.0,13.0,48,0.00,,,0.00,meteohub,2013-04-16 19:24:00,
2013-04-16 15:29:00,63.3,42.8,30.18,WNW,293,4.0,15.0,47,0.00,,,0.00,meteohub,2013-04-16 19:29:00,
2013-04-16 15:35:00,63.1,42.6,30.17,NW,315,5.0,15.0,47,0.00,,,0.00,meteohub,2013-04-16 19:35:00,
2013-04-16 15:40:00,63.3,42.8,30.18,NW,315,8.0,15.0,47,0.00,,,0.00,meteohub,2013-04-16 19:40:00,
2013-04-16 15:45:00,63.9,42.6,30.17,West,270,7.0,8.0,46,0.00,,,0.00,meteohub,2013-04-16 19:45:00,
2013-04-16 15:50:00,63.3,42.3,30.17,West,270,7.0,12.0,46,0.00,,,0.00,meteohub,2013-04-16 19:50:00,
2013-04-16 15:55:00,62.4,41.9,30.15,NW,315,8.0,12.0,47,0.00,,,0.00,meteohub,2013-04-16 19:55:00,
2013-04-16 16:00:00,61.5,41.7,30.15,NW,315,8.0,15.0,48,0.00,,,0.00,meteohub,2013-04-16 20:00:00,
2013-04-16 16:05:00,61.3,42.1,30.15,West,270,4.0,15.0,49,0.00,,,0.00,meteohub,2013-04-16 20:05:00,
2013-04-16 16:11:00,61.9,43.0,30.16,West,270,5.0,15.0,50,0.00,,,0.00,meteohub,2013-04-16 20:11:00,
2013-04-16 16:16:00,61.9,43.0,30.16,West,270,5.0,8.0,50,0.00,,,0.00,meteohub,2013-04-16 20:16:00,
2013-04-16 16:21:00,61.5,42.3,30.16,West,270,7.0,7.0,49,0.00,,,0.00,meteohub,2013-04-16 20:21:00,
2013-04-16 16:26:00,61.0,42.8,30.16,West,270,2.0,11.0,51,0.00,,,0.00,meteohub,2013-04-16 20:26:00,
2013-04-16 16:31:00,61.2,43.0,30.16,North,0,4.0,11.0,51,0.00,,,0.00,meteohub,2013-04-16 20:31:00,
2013-04-16 16:36:00,61.0,42.8,30.16,NW,315,6.0,11.0,51,0.00,,,0.00,meteohub,2013-04-16 20:36:00,
2013-04-16 16:42:00,61.3,43.5,30.16,North,0,5.0,8.0,52,0.00,,,0.00,meteohub,2013-04-16 20:42:00,
2013-04-16 16:47:00,61.3,43.5,30.16,West,270,3.0,8.0,52,0.00,,,0.00,meteohub,2013-04-16 20:47:00,
2013-04-16 16:52:00,61.3,44.1,30.16,WNW,293,4.0,8.0,53,0.00,,,0.00,meteohub,2013-04-16 20:52:00,
2013-04-16 16:57:00,61.0,43.7,30.15,NW,315,8.0,10.0,53,0.00,,,0.00,meteohub,2013-04-16 20:57:00,
2013-04-16 17:02:00,60.4,45.7,30.13,West,270,3.0,10.0,58,0.00,,,0.00,meteohub,2013-04-16 21:02:00,
2013-04-16 17:07:00,59.5,46.0,30.13,NW,315,4.0,8.0,61,0.00,,,0.00,meteohub,2013-04-16 21:07:00,
2013-04-16 17:12:00,58.8,45.9,30.13,West,270,5.0,9.0,62,0.00,,,0.00,meteohub,2013-04-16 21:12:00,
2013-04-16 17:17:00,58.8,46.2,30.12,West,270,4.0,9.0,63,0.00,,,0.00,meteohub,2013-04-16 21:17:00,
2013-04-16 17:23:00,58.8,46.6,30.12,NW,315,7.0,9.0,64,0.00,,,0.00,meteohub,2013-04-16 21:23:00,
2013-04-16 17:28:00,58.6,46.0,30.12,NW,315,6.0,8.0,63,0.00,,,0.00,meteohub,2013-04-16 21:28:00,
2013-04-16 17:33:00,58.5,45.9,30.12,West,270,7.0,8.0,63,0.00,,,0.00,meteohub,2013-04-16 21:33:00,
2013-04-16 17:38:00,58.5,45.9,30.13,West,270,8.0,10.0,63,0.00,,,0.00,meteohub,2013-04-16 21:38:00,
2013-04-16 17:44:00,58.3,45.7,30.13,NW,315,6.0,10.0,63,0.00,,,0.00,meteohub,2013-04-16 21:44:00,
2013-04-16 17:49:00,58.5,45.9,30.12,SE,135,4.0,10.0,63,0.00,,,0.00,meteohub,2013-04-16 21:49:00,
2013-04-16 17:54:00,58.6,46.0,30.12,North,0,4.0,8.0,63,0.00,,,0.00,meteohub,2013-04-16 21:54:00,
2013-04-16 17:59:00,58.5,45.9,30.12,NW,315,4.0,6.0,63,0.00,,,0.00,meteohub,2013-04-16 21:59:00,
2013-04-16 18:04:00,58.1,45.5,30.12,NNW,338,6.0,7.0,63,0.00,,,0.00,meteohub,2013-04-16 22:04:00,
2013-04-16 18:09:00,57.9,45.9,30.12,NW,315,4.0,10.0,64,0.00,,,0.00,meteohub,2013-04-16 22:09:00,
2013-04-16 18:14:00,57.9,45.9,30.12,SE,135,4.0,10.0,64,0.00,,,0.00,meteohub,2013-04-16 22:14:00,
2013-04-16 18:19:00,57.9,45.9,30.11,West,270,8.0,10.0,64,0.00,,,0.00,meteohub,2013-04-16 22:19:00,
2013-04-16 18:24:00,57.9,46.2,30.11,West,270,4.0,9.0,65,0.00,,,0.00,meteohub,2013-04-16 22:24:00,
2013-04-16 18:30:00,57.7,46.0,30.11,West,270,4.0,9.0,65,0.00,,,0.00,meteohub,2013-04-16 22:30:00,
2013-04-16 18:35:00,57.7,46.0,30.11,West,270,3.0,9.0,65,0.00,,,0.00,meteohub,2013-04-16 22:35:00,
2013-04-16 18:40:00,57.6,45.9,30.12,North,0,4.0,6.0,65,0.00,,,0.00,meteohub,2013-04-16 22:40:00,
2013-04-16 18:45:00,57.4,46.0,30.12,West,270,4.0,6.0,66,0.00,,,0.00,meteohub,2013-04-16 22:45:00,
2013-04-16 18:51:00,57.2,46.4,30.10,NNW,338,2.0,6.0,67,0.00,,,0.00,meteohub,2013-04-16 22:51:00,
2013-04-16 18:56:00,57.0,46.6,30.11,West,270,2.0,7.0,68,0.00,,,0.00,meteohub,2013-04-16 22:56:00,
2013-04-16 19:01:00,56.8,46.8,30.10,South,180,2.0,7.0,69,0.00,,,0.00,meteohub,2013-04-16 23:01:00,
2013-04-16 19:07:00,56.8,46.8,30.10,North,0,4.0,9.0,69,0.00,,,0.00,meteohub,2013-04-16 23:07:00,
2013-04-16 19:12:00,56.8,46.8,30.09,West,270,3.0,9.0,69,0.00,,,0.00,meteohub,2013-04-16 23:12:00,
2013-04-16 19:17:00,56.8,47.1,30.10,NNW,338,3.0,9.0,70,0.00,,,0.00,meteohub,2013-04-16 23:17:00,
2013-04-16 19:22:00,56.7,46.9,30.10,West,270,8.0,8.0,70,0.00,,,0.00,meteohub,2013-04-16 23:22:00,
2013-04-16 19:27:00,56.7,47.3,30.10,West,270,4.0,8.0,71,0.00,,,0.00,meteohub,2013-04-16 23:27:00,
2013-04-16 19:32:00,56.7,47.3,30.10,West,270,7.0,8.0,71,0.00,,,0.00,meteohub,2013-04-16 23:32:00,
2013-04-16 19:37:00,56.7,47.7,30.10,West,270,12.0,12.0,72,0.00,,,0.00,meteohub,2013-04-16 23:37:00,
2013-04-16 19:42:00,56.7,47.7,30.10,West,270,5.0,12.0,72,0.00,,,0.00,meteohub,2013-04-16 23:42:00,
2013-04-16 19:47:00,56.5,47.5,30.10,NW,315,4.0,12.0,72,0.00,,,0.00,meteohub,2013-04-16 23:47:00,
2013-04-16 19:52:00,56.5,47.5,30.10,NE,45,6.0,12.0,72,0.00,,,0.00,meteohub,2013-04-16 23:52:00,
2013-04-16 19:57:00,56.5,47.5,30.10,NW,315,5.0,7.0,72,0.00,,,0.00,meteohub,2013-04-16 23:57:00,
2013-04-16 20:03:00,56.3,47.8,30.10,NW,315,3.0,7.0,73,0.00,,,0.00,meteohub,2013-04-17 00:03:00,
2013-04-16 20:08:00,56.3,47.8,30.11,West,270,5.0,6.0,73,0.00,,,0.00,meteohub,2013-04-17 00:08:00,
2013-04-16 20:13:00,56.3,47.8,30.11,West,270,3.0,5.0,73,0.00,,,0.00,meteohub,2013-04-17 00:13:00,
2013-04-16 20:18:00,56.3,47.8,30.11,NW,315,4.0,5.0,73,0.00,,,0.00,meteohub,2013-04-17 00:18:00,
2013-04-16 20:23:00,56.3,47.8,30.10,West,270,8.0,8.0,73,0.00,,,0.00,meteohub,2013-04-17 00:23:00,
2013-04-16 20:28:00,56.3,47.8,30.10,WNW,293,5.0,8.0,73,0.00,,,0.00,meteohub,2013-04-17 00:28:00,
2013-04-16 20:33:00,56.3,47.8,30.10,West,270,4.0,8.0,73,0.00,,,0.00,meteohub,2013-04-17 00:33:00,
2013-04-16 20:38:00,56.3,47.8,30.11,West,270,7.0,8.0,73,0.00,,,0.00,meteohub,2013-04-17 00:38:00,
2013-04-16 20:44:00,56.3,47.8,30.11,West,270,2.0,7.0,73,0.00,,,0.00,meteohub,2013-04-17 00:44:00,
2013-04-16 20:49:00,56.3,47.8,30.10,West,270,4.0,7.0,73,0.00,,,0.00,meteohub,2013-04-17 00:49:00,
2013-04-16 20:54:00,56.3,47.8,30.10,West,270,3.0,7.0,73,0.00,,,0.00,meteohub,2013-04-17 00:54:00,
2013-04-16 20:59:00,56.3,47.8,30.09,West,270,3.0,6.0,73,0.00,,,0.00,meteohub,2013-04-17 00:59:00,
2013-04-16 21:04:00,56.3,47.8,30.09,NW,315,3.0,4.0,73,0.00,,,0.00,meteohub,2013-04-17 01:04:00,
2013-04-16 21:09:00,56.3,47.8,30.10,West,270,4.0,5.0,73,0.00,,,0.00,meteohub,2013-04-17 01:09:00,
2013-04-16 21:15:00,56.3,47.8,30.10,NE,45,2.0,6.0,73,0.00,,,0.00,meteohub,2013-04-17 01:15:00,
2013-04-16 21:20:00,56.3,48.2,30.09,WNW,293,4.0,6.0,74,0.00,,,0.00,meteohub,2013-04-17 01:20:00,
2013-04-16 21:25:00,56.3,48.2,30.08,West,270,5.0,6.0,74,0.00,,,0.00,meteohub,2013-04-17 01:25:00,
2013-04-16 21:30:00,56.3,48.2,30.07,WNW,293,4.0,11.0,74,0.00,,,0.00,meteohub,2013-04-17 01:30:00,
2013-04-16 21:35:00,56.1,48.0,30.05,West,270,4.0,11.0,74,0.00,,,0.00,meteohub,2013-04-17 01:35:00,
2013-04-16 21:41:00,56.1,48.4,30.04,West,270,5.0,11.0,75,0.00,,,0.00,meteohub,2013-04-17 01:41:00,
2013-04-16 21:46:00,56.1,48.4,30.05,NW,315,3.0,9.0,75,0.00,,,0.00,meteohub,2013-04-17 01:46:00,
2013-04-16 21:51:00,55.8,48.4,30.07,NW,315,3.0,6.0,76,0.00,,,0.00,meteohub,2013-04-17 01:51:00,
2013-04-16 21:56:00,55.6,48.2,30.07,West,270,3.0,6.0,76,0.00,,,0.00,meteohub,2013-04-17 01:56:00,
2013-04-16 22:01:00,55.6,48.6,30.07,East,90,2.0,6.0,77,0.00,,,0.00,meteohub,2013-04-17 02:01:00,
2013-04-16 22:06:00,55.6,48.6,30.07,West,270,5.0,8.0,77,0.00,,,0.00,meteohub,2013-04-17 02:06:00,
2013-04-16 22:12:00,55.8,48.7,30.07,South,180,2.0,8.0,77,0.00,,,0.00,meteohub,2013-04-17 02:12:00,
2013-04-16 22:17:00,55.8,48.7,30.07,South,180,4.0,8.0,77,0.00,,,0.00,meteohub,2013-04-17 02:17:00,
2013-04-16 22:22:00,55.9,48.9,30.06,NW,315,6.0,8.0,77,0.00,,,0.00,meteohub,2013-04-17 02:22:00,
2013-04-16 22:27:00,55.9,48.9,30.07,West,270,5.0,8.0,77,0.00,,,0.00,meteohub,2013-04-17 02:27:00,
2013-04-16 22:32:00,56.1,48.9,30.06,North,0,4.0,8.0,77,0.00,,,0.00,meteohub,2013-04-17 02:32:00,
2013-04-16 22:37:00,56.3,48.9,30.07,West,270,6.0,6.0,76,0.00,,,0.00,meteohub,2013-04-17 02:37:00,
2013-04-16 22:42:00,56.3,48.9,30.06,NW,315,4.0,6.0,76,0.00,,,0.00,meteohub,2013-04-17 02:42:00,
2013-04-16 22:47:00,56.3,48.9,30.06,NNW,338,4.0,6.0,76,0.00,,,0.00,meteohub,2013-04-17 02:47:00,
2013-04-16 22:52:00,56.5,48.9,30.06,West,270,4.0,8.0,76,0.00,,,0.00,meteohub,2013-04-17 02:52:00,
2013-04-16 22:57:00,56.5,48.9,30.05,West,270,4.0,8.0,76,0.00,,,0.00,meteohub,2013-04-17 02:57:00,
2013-04-16 23:02:00,56.5,48.9,30.05,West,270,4.0,6.0,76,0.00,,,0.00,meteohub,2013-04-17 03:02:00,
2013-04-16 23:07:00,56.5,49.3,30.05,West,270,6.0,7.0,77,0.00,,,0.00,meteohub,2013-04-17 03:07:00,
2013-04-16 23:12:00,56.5,49.3,30.05,SE,135,4.0,8.0,77,0.00,,,0.00,meteohub,2013-04-17 03:12:00,
2013-04-16 23:17:00,56.3,49.1,30.05,NW,315,2.0,8.0,77,0.00,,,0.00,meteohub,2013-04-17 03:17:00,
2013-04-16 23:22:00,56.3,49.1,30.05,South,180,5.0,8.0,77,0.00,,,0.00,meteohub,2013-04-17 03:22:00,
2013-04-16 23:27:00,56.5,49.3,30.05,West,270,3.0,7.0,77,0.00,,,0.00,meteohub,2013-04-17 03:27:00,
2013-04-16 23:32:00,56.3,49.1,30.05,West,270,3.0,7.0,77,0.00,,,0.00,meteohub,2013-04-17 03:32:00,
2013-04-16 23:37:00,56.5,49.6,30.05,West,270,4.0,7.0,78,0.00,,,0.00,meteohub,2013-04-17 03:37:00,
2013-04-16 23:42:00,56.7,49.5,30.05,West,270,3.0,12.0,77,0.00,,,0.00,meteohub,2013-04-17 03:42:00,
2013-04-16 23:47:00,56.7,49.8,30.05,South,180,3.0,12.0,78,0.00,,,0.00,meteohub,2013-04-17 03:47:00,
2013-04-16 23:52:00,56.7,49.8,30.05,West,270,3.0,5.0,78,0.00,,,0.00,meteohub,2013-04-17 03:52:00,
2013-04-16 23:57:00,56.8,50.0,30.04,South,180,5.0,5.0,78,0.00,,,0.00,meteohub,2013-04-17 03:57:00,